Preview of NWS' New Version of Forecast
This preview is not operational and should not be used for support decisions.

Regional Weather Roundup (RWR)

Issued by Philadelphia/Mt Holly (PHI)

                            
000
ASUS41 KPHI 231612
RWRPHI

REGIONAL WEATHER ROUNDUP
NATIONAL WEATHER SERVICE MOUNT HOLLY NJ
1200 PM EDT SAT MAR 23 2019

NOTE:  "FAIR" INDICATES FEW OR NO CLOUDS BELOW 12,000 FEET WITH NO
SIGNIFICANT WEATHER AND/OR OBSTRUCTIONS TO VISIBILITY.

 * = STATION DOES NOT REPORT PRECIPITATION (E.G. RAIN, SNOW, ETC.) 
        OR FOG.

NJZ015>026-231700-
SOUTHERN NEW JERSEY
  
CITY           SKY/WX    TMP DP  RH WIND       PRES   REMARKS
POMONA         FAIR      46  25  43 W20G38    29.95R                  
WILDWOOD*      FAIR      44  27  51 W18G31    30.02R                  
MILLVILLE      FAIR      44  21  40 NW24G35   30.00R                  
WRIGHTSTOWN    FAIR      45  21  39 W21G35    29.91R                  
MOUNT HOLLY    FAIR      43  21  41 W16G30    29.97R                  
TRENTON        FAIR      43  22  43 W16G28    29.93R                  

$$
NJZ001>014-231700-
NORTHERN NEW JERSEY
  
CITY           SKY/WX    TMP DP  RH WIND       PRES   REMARKS
SUSSEX         FAIR      37  21  52 W17G29    29.90R WCI  27          
ANDOVER*         N/A     38  19  46 NW12G21   29.91R WCI  30          
MORRISTOWN     PTSUNNY   41  23  48 NW15G35   29.89R                  
NEWARK         FAIR      44  20  38 NW20G29   29.88R                  
TETERBORO      FAIR      42  23  46 NW18G30   29.86R                  
CALDWELL       FAIR      40  20  44 NW16G25   29.89R WCI  31          
SOMERVILLE     FAIR      44  22  41 W14G29    29.90R                  
ALLAIRE*       FAIR      43  21  41 W29G40    29.88R                  
TOMS RIVER*    FAIR      45  23  42 NW28G36   29.90S                  

$$
PAZ043-044-047-054-055-060>062-066>071-231700-
EASTERN PENNSYLVANIA
  
CITY           SKY/WX    TMP DP  RH WIND       PRES   REMARKS
PHILADELPHIA   FAIR      45  18  34 NW22G29   30.00R                  
NORTH PHILA    FAIR      46  21  37 W18G31    29.98R                  
BLUE BELL*     FAIR      41  21  45 NW14G24   29.99R                  
DOYLESTOWN     FAIR      43  22  43 NW16G25   29.94R                  
QUAKERTOWN*    SUNNY     41  18  38 W13G22    29.97R                  
PERKASIE*      FAIR      39  16  38 NW22G35   29.96R WCI  29          
POTTSTOWN      FAIR      41  21  44 W12G31    29.99R                  
LANCASTER      FAIR      44  17  33 W25G35    30.02R                  
COATESVILLE    FAIR      41  19  42 NW20G32   30.01S                  
READING        FAIR     N/A N/A N/A MISG      30.00R                  
ALLENTOWN      FAIR      43  15  32 NW20G32   29.95R                  
MOUNT POCONO   FAIR      27  17  66 NW28G35   29.85R WCI  11          
HAZLETON       FAIR      36  10  35 NW17G26   29.95R WCI  25          
LEHIGHTON      FAIR      39  14  35 W13       29.98R WCI  32          
WILKES BARRE   FAIR      35  18  49 NW18G25   29.97R WCI  24          

$$
DEZALL-MDZ008-012-015-019-020-231700-
DELAWARE AND EASTERN MARYLAND
  
CITY           SKY/WX    TMP DP  RH WIND       PRES   REMARKS
WILMINGTON     FAIR      45  18  34 NW22G33   30.03R                  
DOVER          FAIR      46  20  36 W25G33    30.02R                  
GEORGETOWN     FAIR      47  24  40 W15G29    30.05R                  
EASTON         SUNNY     46  23  39 W15G24    30.13R                  
PATUXENT       FAIR      47  22  37 NW22G28   30.12R                  
OCEAN CITY     FAIR      46  27  47 W18G28    30.04R                  
WALLOPS ISLAND FAIR      47  24  40 NW22G31   30.08R                  
CAMBRIDGE      SUNNY     43  23  45 NW20G30   30.11R                  
SALISBURY      FAIR      45  26  47 W22G35    30.07R                  

$$
PAZ001-021-NYZ056-072-MDZ011-DCZ001-231700-
OTHER NEARBY LOCATIONS
  
CITY           SKY/WX    TMP DP  RH WIND       PRES   REMARKS
HARRISBURG     FAIR      44  15  31 NW20G29   30.05R                  
STATE COLLEGE  SUNNY     36  12  38 NW12G22   30.08R WCI  27          
WILLIAMSPORT   FAIR      41   6  23 NW17G29   30.04R                  
BINGHAMTON     FAIR      25  12  58 NW18G29   29.95R WCI  11          
NEW YORK CITY  FAIR      41  21  44 VRB5G25   29.87R                  
BALTIMORE      FAIR      45  20  36 W16G29    30.09R                  
WASHINGTON DC  FAIR      46  19  34 NW18G24   30.15R                  

$$